Flag for U.S.A. Weather past 2 weeks in Miami, Florida, U.S.A.

Now
85 °F

Scattered clouds.


Feels Like: 93 °F
Forecast: 79 / 89 °F
Wind: 6 mph from Northwest

Location: Miami International Airport

Current Time: Jun 30, 2015 at 9:21:25 AM

Latest Report: Jun 30, 2015 at 8:53 AM


Visibility: 7 mi

Pressure: 30.15 "Hg

Humidity: 72%

Dew point: 75 °F

Location of MiamiLocation

Historic Weather in Miami — Graph

°F

Miami temperature yesterday

Maximum temperature yesterday: 92 °F (at 12:53 PM)
Minimum temperature yesterday: 77 °F (at 3:53 AM)
Average temperature yesterday: 82 °F

Past Weeks' High & Low Weather Summary

 TemperatureHumidityPressure
High92 °F (Jun 19, 1:53 PM)88% (Jun 27, 4:02 PM)30.16 "Hg (Jun 27, 4:02 PM)
Low76 °F (Jun 27, 4:02 PM)46% (Jun 21, 1:53 PM)30.03 "Hg (Jun 27, 4:53 AM)
Average84 °F69%30.09 "Hg
* Reported Jun 15 7:53 AM — Jun 30 7:53 AM, Miami, Weather by CustomWeather, © 2015

Note: Actual official high and low records may vary slightly from our data, if they occured in-between our weather recording intervals... More about our weather records

Advertising

Miami weather history for previous 24 hours

 ConditionsComfort  
Time TempWeatherWind HumidityBarometerVisibility
7:53 AM
Tue, Jun 30
83 °FScattered clouds.No wind77%30.13 "Hg10 mi
6:53 AM80 °FOvercast.No wind81%30.10 "Hg10 mi
5:53 AM80 °FPassing clouds.No wind81%30.09 "Hg10 mi
4:53 AM81 °FPassing clouds.No wind77%30.09 "Hg10 mi
3:53 AM80 °FClear.No wind76%30.09 "Hg10 mi
2:53 AM78 °FPassing clouds.No wind87%30.10 "Hg10 mi
1:53 AM78 °FPassing clouds.No wind87%30.10 "Hg10 mi
12:53 AM78 °FPassing clouds.No wind84%30.11 "Hg10 mi
11:53 PM
Mon, Jun 29
79 °FPassing clouds.No wind82%30.12 "Hg10 mi
10:53 PM79 °FPassing clouds.No wind82%30.13 "Hg10 mi
9:53 PM79 °FPartly cloudy.5 mph82%30.12 "Hg10 mi
8:53 PM78 °FPartly sunny.3 mph84%30.10 "Hg10 mi
7:53 PM79 °FPartly sunny.8 mph77%30.10 "Hg10 mi
6:53 PM79 °FBroken clouds.10 mph79%30.10 "Hg10 mi
5:53 PM78 °FPartly sunny.6 mph74%30.07 "Hg10 mi
4:53 PM83 °FThunderstorms. Cloudy.10 mph77%30.07 "Hg2 mi
3:53 PM91 °FScattered clouds.14 mph57%30.04 "Hg10 mi
2:53 PM92 °FScattered clouds.14 mph56%30.06 "Hg10 mi
1:53 PM89 °FScattered clouds.7 mph59%30.09 "Hg10 mi
12:53 PM92 °FScattered clouds.3 mph49%30.09 "Hg10 mi
11:53 AM90 °FScattered clouds.8 mph56%30.10 "Hg10 mi
10:53 AM88 °FBroken clouds.6 mph61%30.10 "Hg10 mi
9:53 AM86 °FScattered clouds.3 mph65%30.09 "Hg10 mi
Weather by CustomWeather, © 2015

See weather overviewHow to use our weather pages